Terminal Aerodrome Forecast
Issued by NWS Lake Charles, LA

Home | Current Version | Previous Version | Text Only | Print | Product List | Glossary On
Versions: 1 2 3 4 5 6 7 8 9 10 11 12 13 14 15 16 17 18 19 20 21 22 23 24 25 26 27 28 29 30 31 32
000
FTUS44 KLCH 220736 AAB
TAFBPT
TAF AMD
KBPT 220736Z 2208/2306 20009KT P6SM VCSH SCT070 BKN100
      TEMPO 2208/2210 2SM SHRA BKN008 OVC015
     FM221000 26015G23KT P6SM SCT025 BKN050
     FM221500 27022G32KT P6SM SKC
     FM230000 30018KT P6SM SKC=

USA.gov is the U.S. government's official web portal to all federal, state and local government web resources and services.